When you browse on this site, cookies collect data to enhance your experience and personalize the content and advertising you see.
Visit our Privacy Policy to learn more. By continuing to use the site, you agree to this use of cookies and data.
  • In Latvia
  • List of Countries
  • For 7 days
  • Water Temperature
  • Weather Map
  • Weather Widgets
  • user-avatar
    Login

    Hourly Weather Kakata

    Today, 21 September, Saturday

    Time Temperature Precipitation Wind Pressure Humidity
    00:00 +25°C° 1.1 mm 2 mps 752 mmHg 98%
    01:00 +25°C° 1.1 mm 2 mps 752 mmHg 98%
    02:00 +25°C° 1.1 mm 2 mps 751 mmHg 97%
    03:00 +25°C° 0.7 mm 2 mps 752 mmHg 97%
    04:00 +25°C° 0.7 mm 2 mps 752 mmHg 98%
    05:00 +25°C° 0.7 mm 2 mps 752 mmHg 98%
    06:00 +25°C° 1.1 mm 1 mps 753 mmHg 97%
    07:00 +25°C° 1.1 mm 1 mps 753 mmHg 97%
    08:00 +25°C° 1.1 mm 1 mps 753 mmHg 97%
    09:00 +26°C° 0.3 mm 1 mps 753 mmHg 94%
    10:00 +26°C° 0.3 mm 2 mps 753 mmHg 91%
    11:00 +27°C° 0.3 mm 2 mps 753 mmHg 88%
    12:00 +28°C° 1.1 mm 2 mps 752 mmHg 87%
    13:00 +28°C° 1.1 mm 2 mps 751 mmHg 85%
    14:00 +29°C° 1.1 mm 3 mps 751 mmHg 83%
    15:00 +28°C° 0.4 mm 2 mps 751 mmHg 85%
    16:00 +27°C° 0.4 mm 2 mps 751 mmHg 87%
    17:00 +27°C° 0.4 mm 2 mps 751 mmHg 88%
    18:00 +26°C° 0 mm 1 mps 752 mmHg 91%
    19:00 +25°C° 0 mm 1 mps 752 mmHg 94%
    20:00 +25°C° 0 mm 1 mps 753 mmHg 97%
    21:00 +25°C° 0.1 mm 1 mps 753 mmHg 96%
    22:00 +25°C° 0.1 mm 1 mps 753 mmHg 96%
    23:00 +25°C° 0.1 mm 1 mps 753 mmHg 95%

    Tomorrow, 22 September, Sunday

    Time Temperature Precipitation Wind Pressure Humidity
    00:00 +23°C° 0.1 mm 0 mps 753 mmHg 95%
    01:00 +23°C° 0.1 mm 0 mps 752 mmHg 95%
    02:00 +23°C° 0.1 mm 0 mps 752 mmHg 95%
    03:00 +23°C° 0 mm 0 mps 752 mmHg 95%
    04:00 +23°C° 0 mm 0 mps 752 mmHg 96%
    05:00 +23°C° 0 mm 0 mps 753 mmHg 96%
    06:00 +24°C° 0 mm 0 mps 753 mmHg 92%
    07:00 +24°C° 0 mm 0 mps 753 mmHg 89%
    08:00 +27°C° 0 mm 1 mps 754 mmHg 86%
    09:00 +28°C° 0.5 mm 1 mps 753 mmHg 83%
    10:00 +29°C° 0.5 mm 1 mps 753 mmHg 80%
    11:00 +30°C° 0.5 mm 1 mps 752 mmHg 77%
    12:00 +29°C° 0.7 mm 1 mps 752 mmHg 78%
    13:00 +29°C° 0.7 mm 2 mps 751 mmHg 80%
    14:00 +29°C° 0.7 mm 2 mps 751 mmHg 82%
    15:00 +28°C° 0.1 mm 2 mps 751 mmHg 84%
    16:00 +27°C° 0.1 mm 2 mps 751 mmHg 86%
    17:00 +26°C° 0.1 mm 2 mps 751 mmHg 88%
    18:00 +26°C° 0 mm 1 mps 751 mmHg 91%
    19:00 +25°C° 0 mm 1 mps 752 mmHg 93%
    20:00 +25°C° 0 mm 1 mps 752 mmHg 96%
    21:00 +24°C° 0 mm 1 mps 752 mmHg 97%
    22:00 +24°C° 0 mm 1 mps 753 mmHg 97%
    23:00 +22°C° 0 mm 0 mps 753 mmHg 98%

    Day after tomorrow, 23 September, Monday

    Time Temperature Precipitation Wind Pressure Humidity
    00:00 +22°C° 0 mm 0 mps 753 mmHg 97%
    01:00 +22°C° 0 mm 0 mps 752 mmHg 97%
    02:00 +22°C° 0 mm 0 mps 752 mmHg 97%
    03:00 +22°C° 0 mm 0 mps 752 mmHg 96%
    04:00 +23°C° 0 mm 0 mps 753 mmHg 95%
    05:00 +23°C° 0 mm 0 mps 753 mmHg 95%
    06:00 +24°C° 0.1 mm 0 mps 753 mmHg 90%
    07:00 +25°C° 0.1 mm 0 mps 753 mmHg 86%
    08:00 +28°C° 0.1 mm 1 mps 754 mmHg 82%
    09:00 +28°C° 1.5 mm 1 mps 753 mmHg 82%
    10:00 +29°C° 1.5 mm 1 mps 753 mmHg 82%
    11:00 +29°C° 1.5 mm 2 mps 753 mmHg 83%
    12:00 +29°C° 1.9 mm 2 mps 752 mmHg 83%
    13:00 +29°C° 1.9 mm 2 mps 752 mmHg 84%
    14:00 +29°C° 1.9 mm 3 mps 751 mmHg 84%
    15:00 +28°C° 0.7 mm 2 mps 751 mmHg 86%
    16:00 +27°C° 0.7 mm 2 mps 752 mmHg 88%
    17:00 +27°C° 0.7 mm 2 mps 752 mmHg 90%
    18:00 +26°C° 0 mm 2 mps 752 mmHg 92%
    19:00 +25°C° 0 mm 1 mps 753 mmHg 94%
    20:00 +25°C° 0 mm 1 mps 753 mmHg 96%
    21:00 +25°C° 0.1 mm 1 mps 754 mmHg 96%
    22:00 +25°C° 0.1 mm 1 mps 754 mmHg 96%
    23:00 +23°C° 0.1 mm 0 mps 754 mmHg 96%

    24 September, Tuesday

    Time Temperature Precipitation Wind Pressure Humidity
    00:00 +25°C° 0.2 mm 1 mps 754 mmHg 96%
    01:00 +25°C° 0.2 mm 1 mps 753 mmHg 96%
    02:00 +25°C° 0.2 mm 1 mps 753 mmHg 96%
    03:00 +25°C° 0.1 mm 1 mps 753 mmHg 97%
    04:00 +25°C° 0.1 mm 1 mps 753 mmHg 97%
    05:00 +25°C° 0.1 mm 1 mps 753 mmHg 97%
    06:00 +26°C° 0.3 mm 1 mps 753 mmHg 94%
    07:00 +26°C° 0.3 mm 1 mps 753 mmHg 91%
    08:00 +27°C° 0.3 mm 1 mps 754 mmHg 88%
    09:00 +28°C° 1.6 mm 1 mps 753 mmHg 86%
    10:00 +29°C° 1.6 mm 1 mps 753 mmHg 84%
    11:00 +30°C° 1.6 mm 2 mps 753 mmHg 82%
    12:00 +30°C° 1.8 mm 2 mps 752 mmHg 82%
    13:00 +29°C° 1.8 mm 2 mps 751 mmHg 83%
    14:00 +29°C° 1.8 mm 3 mps 751 mmHg 84%
    15:00 +29°C° 0.5 mm 2 mps 751 mmHg 85%
    16:00 +28°C° 0.5 mm 2 mps 751 mmHg 87%
    17:00 +27°C° 0.5 mm 2 mps 751 mmHg 89%
    18:00 +27°C° 0.1 mm 2 mps 752 mmHg 91%
    19:00 +26°C° 0.1 mm 1 mps 752 mmHg 93%
    20:00 +25°C° 0.1 mm 1 mps 753 mmHg 95%
    21:00 +25°C° 1.9 mm 1 mps 753 mmHg 96%
    22:00 +25°C° 1.9 mm 1 mps 753 mmHg 96%
    23:00 +25°C° 1.9 mm 1 mps 753 mmHg 96%

    25 September, Wednesday

    Time Temperature Precipitation Wind Pressure Humidity
    00:00 +25°C° 0.8 mm 1 mps 753 mmHg 97%
    01:00 +25°C° 0.8 mm 1 mps 752 mmHg 97%
    02:00 +25°C° 0.8 mm 1 mps 752 mmHg 97%
    03:00 +23°C° 0.4 mm 0 mps 752 mmHg 97%
    04:00 +23°C° 0.4 mm 0 mps 752 mmHg 97%
    05:00 +23°C° 0.4 mm 0 mps 752 mmHg 97%
    06:00 +24°C° 0.5 mm 0 mps 752 mmHg 95%
    07:00 +24°C° 0.5 mm 0 mps 753 mmHg 93%
    08:00 +25°C° 0.5 mm 0 mps 753 mmHg 91%
    09:00 +25°C° 0.3 mm 0 mps 753 mmHg 90%
    10:00 +27°C° 0.3 mm 1 mps 753 mmHg 89%
    11:00 +27°C° 0.3 mm 1 mps 752 mmHg 88%
    12:00 +28°C° 0.6 mm 1 mps 752 mmHg 87%
    13:00 +28°C° 0.6 mm 1 mps 751 mmHg 86%
    14:00 +28°C° 0.6 mm 2 mps 751 mmHg 85%
    15:00 +27°C° 1.2 mm 1 mps 751 mmHg 88%
    16:00 +27°C° 1.2 mm 1 mps 751 mmHg 91%
    17:00 +26°C° 1.2 mm 1 mps 751 mmHg 94%
    18:00 +25°C° 0.1 mm 1 mps 752 mmHg 95%
    19:00 +25°C° 0.1 mm 1 mps 752 mmHg 96%
    20:00 +23°C° 0.1 mm 0 mps 753 mmHg 97%
    21:00 +25°C° 0.1 mm 1 mps 753 mmHg 97%
    22:00 +25°C° 0.1 mm 1 mps 753 mmHg 98%
    23:00 +25°C° 0.1 mm 1 mps 754 mmHg 98%

    26 September, Thursday

    Time Temperature Precipitation Wind Pressure Humidity
    00:00 +25°C° 0.4 mm 1 mps 753 mmHg 98%
    01:00 +23°C° 0.4 mm 0 mps 753 mmHg 97%
    02:00 +23°C° 0.4 mm 0 mps 752 mmHg 97%
    03:00 +23°C° 1.7 mm 0 mps 752 mmHg 97%
    04:00 +23°C° 1.7 mm 0 mps 753 mmHg 97%
    05:00 +23°C° 1.7 mm 0 mps 753 mmHg 97%
    06:00 +23°C° 2.1 mm 0 mps 753 mmHg 96%
    07:00 +23°C° 2.1 mm 0 mps 754 mmHg 96%
    08:00 +25°C° 2.1 mm 1 mps 754 mmHg 95%
    09:00 +25°C° 1.3 mm 1 mps 754 mmHg 95%
    10:00 +26°C° 1.3 mm 1 mps 754 mmHg 94%
    11:00 +26°C° 1.3 mm 1 mps 754 mmHg 94%
    12:00 +26°C° 1 mm 1 mps 753 mmHg 94%
    13:00 +26°C° 1 mm 1 mps 753 mmHg 93%
    14:00 +24°C° 1 mm 0 mps 752 mmHg 93%
    15:00 +24°C° 0.3 mm 0 mps 752 mmHg 94%
    16:00 +24°C° 0.3 mm 0 mps 753 mmHg 94%
    17:00 +23°C° 0.3 mm 0 mps 753 mmHg 95%
    18:00 +23°C° 0 mm 0 mps 753 mmHg 96%
    19:00 +23°C° 0 mm 0 mps 753 mmHg 96%
    20:00 +23°C° 0 mm 0 mps 754 mmHg 97%
    21:00 +23°C° 0.1 mm 0 mps 754 mmHg 97%
    22:00 +23°C° 0.1 mm 0 mps 754 mmHg 97%
    23:00 +23°C° 0.1 mm 0 mps 754 mmHg 97%
    Show more